Time,TemperatureF,DewpointF,PressureIn,WindDirection,WindDirectionDegrees,WindSpeedMPH,WindSpeedGustMPH,Humidity,HourlyPrecipIn,Conditions,Clouds,dailyrainin,SoftwareType,DateUTC
2013-05-10 00:00:00,62.9,59.0,30.05,N/A,-737280,0.0,-999.0,87,0.00,,,0.00,Wunderground v.1.15,2013-05-10 04:00:00,
2013-05-10 00:05:00,62.9,59.0,30.05,N/A,-737280,0.0,-999.0,87,0.00,,,0.00,Wunderground v.1.15,2013-05-10 04:05:00,
2013-05-10 00:10:00,62.9,59.0,30.05,N/A,-737280,0.0,-999.0,87,0.00,,,0.00,Wunderground v.1.15,2013-05-10 04:10:00,
2013-05-10 00:15:00,62.9,59.0,30.05,N/A,-737280,0.0,-999.0,87,0.00,,,0.00,Wunderground v.1.15,2013-05-10 04:15:00,
2013-05-10 00:20:00,62.9,59.0,30.05,N/A,-737280,0.0,-999.0,87,0.00,,,0.00,Wunderground v.1.15,2013-05-10 04:20:00,
2013-05-10 00:25:00,62.9,59.0,30.05,N/A,-737280,0.0,-999.0,87,0.00,,,0.00,Wunderground v.1.15,2013-05-10 04:25:00,
2013-05-10 00:30:00,62.9,59.0,30.05,N/A,-737280,0.0,-999.0,87,0.00,,,0.00,Wunderground v.1.15,2013-05-10 04:30:00,
2013-05-10 00:35:00,62.9,59.0,30.05,N/A,-737280,0.0,-999.0,87,0.00,,,0.00,Wunderground v.1.15,2013-05-10 04:35:00,
2013-05-10 00:40:00,62.9,59.0,30.05,N/A,-737280,0.0,-999.0,87,0.00,,,0.00,Wunderground v.1.15,2013-05-10 04:40:00,
2013-05-10 00:45:00,62.4,58.8,30.05,N/A,-737280,0.0,-999.0,88,0.00,,,0.00,Wunderground v.1.15,2013-05-10 04:45:00,
2013-05-10 00:50:00,62.4,58.8,30.05,N/A,-737280,0.0,-999.0,88,0.00,,,0.00,Wunderground v.1.15,2013-05-10 04:50:00,
2013-05-10 00:55:00,62.4,58.8,30.05,N/A,-737280,0.0,-999.0,88,0.00,,,0.00,Wunderground v.1.15,2013-05-10 04:55:00,
2013-05-10 01:00:00,62.4,58.8,30.05,N/A,-737280,0.0,-999.0,88,0.00,,,0.00,Wunderground v.1.15,2013-05-10 05:00:00,
2013-05-10 01:05:00,62.4,58.8,30.05,N/A,-737280,0.0,-999.0,88,0.00,,,0.00,Wunderground v.1.15,2013-05-10 05:05:00,
2013-05-10 01:10:00,62.4,58.8,30.05,N/A,-737280,0.0,-999.0,88,0.00,,,0.00,Wunderground v.1.15,2013-05-10 05:10:00,
2013-05-10 01:15:00,62.0,59.0,30.05,N/A,-737280,0.0,-999.0,90,0.00,,,0.00,Wunderground v.1.15,2013-05-10 05:15:00,
2013-05-10 01:20:00,62.0,59.0,30.05,N/A,-737280,0.0,-999.0,90,0.00,,,0.00,Wunderground v.1.15,2013-05-10 05:20:00,
2013-05-10 01:25:00,62.0,59.0,30.05,N/A,-737280,0.0,-999.0,90,0.00,,,0.00,Wunderground v.1.15,2013-05-10 05:25:00,
2013-05-10 01:30:00,62.0,59.0,30.05,N/A,-737280,0.0,-999.0,90,0.00,,,0.00,Wunderground v.1.15,2013-05-10 05:30:00,
2013-05-10 01:35:00,62.0,59.0,30.05,N/A,-737280,0.0,-999.0,90,0.00,,,0.00,Wunderground v.1.15,2013-05-10 05:35:00,
2013-05-10 01:40:00,62.0,59.0,30.05,N/A,-737280,0.0,-999.0,90,0.00,,,0.00,Wunderground v.1.15,2013-05-10 05:40:00,
2013-05-10 01:45:00,61.6,58.6,30.05,N/A,-737280,0.0,-999.0,90,0.00,,,0.00,Wunderground v.1.15,2013-05-10 05:45:00,
2013-05-10 01:50:00,61.6,58.6,30.05,N/A,-737280,0.0,-999.0,90,0.00,,,0.00,Wunderground v.1.15,2013-05-10 05:50:00,
2013-05-10 01:55:00,61.6,58.6,30.05,N/A,-737280,0.0,-999.0,90,0.00,,,0.00,Wunderground v.1.15,2013-05-10 05:55:00,
2013-05-10 02:00:00,61.6,58.6,30.05,N/A,-737280,0.0,-999.0,90,0.00,,,0.00,Wunderground v.1.15,2013-05-10 06:00:00,
2013-05-10 02:05:00,61.6,58.6,30.05,N/A,-737280,0.0,-999.0,90,0.00,,,0.00,Wunderground v.1.15,2013-05-10 06:05:00,
2013-05-10 02:10:00,61.6,58.6,30.05,N/A,-737280,0.0,-999.0,90,0.00,,,0.00,Wunderground v.1.15,2013-05-10 06:10:00,
2013-05-10 02:15:00,61.5,59.2,30.05,N/A,-737280,0.0,-999.0,92,0.00,,,0.00,Wunderground v.1.15,2013-05-10 06:15:00,
2013-05-10 02:20:00,61.5,59.2,30.05,N/A,-737280,0.0,-999.0,92,0.00,,,0.00,Wunderground v.1.15,2013-05-10 06:20:00,
2013-05-10 02:25:00,61.5,59.2,30.05,N/A,-737280,0.0,-999.0,92,0.00,,,0.00,Wunderground v.1.15,2013-05-10 06:25:00,
2013-05-10 02:30:00,61.5,59.2,30.05,N/A,-737280,0.0,-999.0,92,0.00,,,0.00,Wunderground v.1.15,2013-05-10 06:30:00,
2013-05-10 02:35:00,61.5,59.2,30.05,N/A,-737280,0.0,-999.0,92,0.00,,,0.00,Wunderground v.1.15,2013-05-10 06:35:00,
2013-05-10 02:40:00,61.5,59.2,30.05,N/A,-737280,0.0,-999.0,92,0.00,,,0.00,Wunderground v.1.15,2013-05-10 06:40:00,
2013-05-10 02:45:00,61.5,59.2,30.04,N/A,-737280,0.0,-999.0,92,0.00,,,0.00,Wunderground v.1.15,2013-05-10 06:45:00,
2013-05-10 02:50:00,61.5,59.2,30.04,N/A,-737280,0.0,-999.0,92,0.00,,,0.00,Wunderground v.1.15,2013-05-10 06:50:00,
2013-05-10 02:55:00,61.5,59.2,30.04,N/A,-737280,0.0,-999.0,92,0.00,,,0.00,Wunderground v.1.15,2013-05-10 06:55:00,
2013-05-10 03:00:00,61.5,59.2,30.04,N/A,-737280,0.0,-999.0,92,0.00,,,0.00,Wunderground v.1.15,2013-05-10 07:00:00,
2013-05-10 03:05:00,61.5,59.2,30.04,N/A,-737280,0.0,-999.0,92,0.00,,,0.00,Wunderground v.1.15,2013-05-10 07:05:00,
2013-05-10 03:10:00,61.5,59.2,30.04,N/A,-737280,0.0,-999.0,92,0.00,,,0.00,Wunderground v.1.15,2013-05-10 07:10:00,
2013-05-10 03:15:00,61.4,59.1,30.03,N/A,-737280,0.0,-999.0,92,0.00,,,0.00,Wunderground v.1.15,2013-05-10 07:15:00,
2013-05-10 03:20:00,61.4,59.1,30.03,N/A,-737280,0.0,-999.0,92,0.00,,,0.00,Wunderground v.1.15,2013-05-10 07:20:00,
2013-05-10 03:25:00,61.4,59.1,30.03,N/A,-737280,0.0,-999.0,92,0.00,,,0.00,Wunderground v.1.15,2013-05-10 07:25:00,
2013-05-10 03:30:00,61.4,59.1,30.03,N/A,-737280,0.0,-999.0,92,0.00,,,0.00,Wunderground v.1.15,2013-05-10 07:30:00,
2013-05-10 03:35:00,61.4,59.1,30.03,N/A,-737280,0.0,-999.0,92,0.00,,,0.00,Wunderground v.1.15,2013-05-10 07:35:00,
2013-05-10 03:40:00,61.4,59.1,30.03,N/A,-737280,0.0,-999.0,92,0.00,,,0.00,Wunderground v.1.15,2013-05-10 07:40:00,
2013-05-10 03:45:00,60.8,58.5,30.03,N/A,-737280,0.0,-999.0,92,0.00,,,0.00,Wunderground v.1.15,2013-05-10 07:45:00,
2013-05-10 03:50:00,60.8,58.5,30.03,N/A,-737280,0.0,-999.0,92,0.00,,,0.00,Wunderground v.1.15,2013-05-10 07:50:00,
2013-05-10 03:55:00,60.8,58.5,30.03,N/A,-737280,0.0,-999.0,92,0.00,,,0.00,Wunderground v.1.15,2013-05-10 07:55:00,
2013-05-10 04:00:00,60.8,58.5,30.03,N/A,-737280,0.0,-999.0,92,0.00,,,0.00,Wunderground v.1.15,2013-05-10 08:00:00,
2013-05-10 04:05:00,60.8,58.5,30.03,N/A,-737280,0.0,-999.0,92,0.00,,,0.00,Wunderground v.1.15,2013-05-10 08:05:00,
2013-05-10 04:10:00,60.8,58.5,30.03,N/A,-737280,0.0,-999.0,92,0.00,,,0.00,Wunderground v.1.15,2013-05-10 08:10:00,
2013-05-10 04:15:00,60.5,58.5,30.03,N/A,-737280,0.0,-999.0,93,0.00,,,0.00,Wunderground v.1.15,2013-05-10 08:15:00,
2013-05-10 04:20:00,60.5,58.5,30.03,N/A,-737280,0.0,-999.0,93,0.00,,,0.00,Wunderground v.1.15,2013-05-10 08:20:00,
2013-05-10 04:25:00,60.5,58.5,30.03,N/A,-737280,0.0,-999.0,93,0.00,,,0.00,Wunderground v.1.15,2013-05-10 08:25:00,
2013-05-10 04:30:00,60.5,58.5,30.03,N/A,-737280,0.0,-999.0,93,0.00,,,0.00,Wunderground v.1.15,2013-05-10 08:30:00,
2013-05-10 04:35:00,60.5,58.5,30.03,N/A,-737280,0.0,-999.0,93,0.00,,,0.00,Wunderground v.1.15,2013-05-10 08:35:00,
2013-05-10 04:40:00,60.5,58.5,30.03,N/A,-737280,0.0,-999.0,93,0.00,,,0.00,Wunderground v.1.15,2013-05-10 08:40:00,
2013-05-10 04:45:00,60.1,58.4,30.02,N/A,-737280,0.0,-999.0,94,0.00,,,0.00,Wunderground v.1.15,2013-05-10 08:45:00,
2013-05-10 04:50:00,60.1,58.4,30.02,N/A,-737280,0.0,-999.0,94,0.00,,,0.00,Wunderground v.1.15,2013-05-10 08:50:00,
2013-05-10 04:55:00,60.1,58.4,30.02,N/A,-737280,0.0,-999.0,94,0.00,,,0.00,Wunderground v.1.15,2013-05-10 08:55:00,
2013-05-10 05:00:00,60.1,58.4,30.02,N/A,-737280,0.0,-999.0,94,0.00,,,0.00,Wunderground v.1.15,2013-05-10 09:00:00,
2013-05-10 05:05:00,60.1,58.4,30.02,N/A,-737280,0.0,-999.0,94,0.00,,,0.00,Wunderground v.1.15,2013-05-10 09:05:00,
2013-05-10 05:10:00,60.1,58.4,30.02,N/A,-737280,0.0,-999.0,94,0.00,,,0.00,Wunderground v.1.15,2013-05-10 09:10:00,
2013-05-10 05:15:00,60.1,58.4,30.02,N/A,-737280,0.0,-999.0,94,0.00,,,0.00,Wunderground v.1.15,2013-05-10 09:15:00,
2013-05-10 05:20:00,60.1,58.4,30.02,N/A,-737280,0.0,-999.0,94,0.00,,,0.00,Wunderground v.1.15,2013-05-10 09:20:00,
2013-05-10 05:25:00,60.1,58.4,30.02,N/A,-737280,0.0,-999.0,94,0.00,,,0.00,Wunderground v.1.15,2013-05-10 09:25:00,
2013-05-10 05:30:00,60.1,58.4,30.02,N/A,-737280,0.0,-999.0,94,0.00,,,0.00,Wunderground v.1.15,2013-05-10 09:30:00,
2013-05-10 05:35:00,60.1,58.4,30.02,N/A,-737280,0.0,-999.0,94,0.00,,,0.00,Wunderground v.1.15,2013-05-10 09:35:00,
2013-05-10 05:40:00,60.1,58.4,30.02,N/A,-737280,0.0,-999.0,94,0.00,,,0.00,Wunderground v.1.15,2013-05-10 09:40:00,
2013-05-10 05:45:00,59.6,57.9,30.02,N/A,-737280,0.0,-999.0,94,0.00,,,0.00,Wunderground v.1.15,2013-05-10 09:45:00,
2013-05-10 05:50:00,59.6,57.9,30.02,N/A,-737280,0.0,-999.0,94,0.00,,,0.00,Wunderground v.1.15,2013-05-10 09:50:00,
2013-05-10 05:55:00,59.6,57.9,30.02,N/A,-737280,0.0,-999.0,94,0.00,,,0.00,Wunderground v.1.15,2013-05-10 09:55:00,
2013-05-10 06:00:00,59.6,57.9,30.02,N/A,-737280,0.0,-999.0,94,0.00,,,0.00,Wunderground v.1.15,2013-05-10 10:00:00,
2013-05-10 06:05:00,59.6,57.9,30.02,N/A,-737280,0.0,-999.0,94,0.00,,,0.00,Wunderground v.1.15,2013-05-10 10:05:00,
2013-05-10 06:10:00,59.6,57.9,30.02,N/A,-737280,0.0,-999.0,94,0.00,,,0.00,Wunderground v.1.15,2013-05-10 10:10:00,
2013-05-10 06:15:00,59.4,57.7,30.02,N/A,-737280,0.0,-999.0,94,0.00,,,0.00,Wunderground v.1.15,2013-05-10 10:15:00,
2013-05-10 06:20:00,59.4,57.7,30.02,N/A,-737280,0.0,-999.0,94,0.00,,,0.00,Wunderground v.1.15,2013-05-10 10:20:00,
2013-05-10 06:25:00,59.4,57.7,30.02,N/A,-737280,0.0,-999.0,94,0.00,,,0.00,Wunderground v.1.15,2013-05-10 10:25:00,
2013-05-10 06:30:00,59.4,57.7,30.02,N/A,-737280,0.0,-999.0,94,0.00,,,0.00,Wunderground v.1.15,2013-05-10 10:30:00,
2013-05-10 06:35:00,59.4,57.7,30.02,N/A,-737280,0.0,-999.0,94,0.00,,,0.00,Wunderground v.1.15,2013-05-10 10:35:00,
2013-05-10 06:40:00,59.4,57.7,30.02,N/A,-737280,0.0,-999.0,94,0.00,,,0.00,Wunderground v.1.15,2013-05-10 10:40:00,
2013-05-10 06:45:00,59.4,57.7,30.03,N/A,-737280,0.0,-999.0,94,0.00,,,0.00,Wunderground v.1.15,2013-05-10 10:45:00,
2013-05-10 06:50:00,59.4,57.7,30.03,N/A,-737280,0.0,-999.0,94,0.00,,,0.00,Wunderground v.1.15,2013-05-10 10:50:00,
2013-05-10 06:55:00,59.4,57.7,30.03,N/A,-737280,0.0,-999.0,94,0.00,,,0.00,Wunderground v.1.15,2013-05-10 10:55:00,
2013-05-10 07:09:00,59.4,57.7,30.03,N/A,-737280,0.0,-999.0,94,0.00,,,0.00,Wunderground v.1.15,2013-05-10 11:09:00,
2013-05-10 07:15:00,59.5,58.1,30.04,West,259,0.0,0.0,95,0.00,,,0.00,Wunderground v.1.15,2013-05-10 11:15:00,
2013-05-10 07:20:00,59.6,58.2,30.04,West,259,0.0,0.0,95,0.00,,,0.00,Wunderground v.1.15,2013-05-10 11:20:00,
2013-05-10 07:25:00,59.6,58.2,30.04,West,259,0.0,0.0,95,0.00,,,0.00,Wunderground v.1.15,2013-05-10 11:25:00,
2013-05-10 07:35:00,60.0,58.6,30.04,West,259,0.0,0.0,95,0.00,,,0.00,Wunderground v.1.15,2013-05-10 11:35:00,
2013-05-10 07:40:00,60.4,59.3,30.03,West,259,0.0,0.0,96,0.00,,,0.00,Wunderground v.1.15,2013-05-10 11:40:00,
2013-05-10 07:45:00,60.8,59.7,30.04,West,259,0.0,0.0,96,0.00,,,0.00,Wunderground v.1.15,2013-05-10 11:45:00,
2013-05-10 07:50:00,61.6,60.4,30.04,West,259,0.0,0.0,96,0.00,,,0.00,Wunderground v.1.15,2013-05-10 11:50:00,
2013-05-10 07:55:00,62.2,60.8,30.04,West,259,0.0,2.0,95,0.00,,,0.00,Wunderground v.1.15,2013-05-10 11:55:00,
2013-05-10 08:00:00,62.7,61.2,30.03,West,259,1.0,1.0,95,0.00,,,0.00,Wunderground v.1.15,2013-05-10 12:00:00,
2013-05-10 08:05:00,62.9,61.4,30.03,West,259,1.0,1.0,95,0.00,,,0.00,Wunderground v.1.15,2013-05-10 12:05:00,
2013-05-10 08:10:00,63.0,61.2,30.03,West,259,0.0,0.0,94,0.00,,,0.00,Wunderground v.1.15,2013-05-10 12:10:00,
2013-05-10 08:15:00,63.2,61.4,30.03,West,259,0.0,0.0,94,0.00,,,0.00,Wunderground v.1.15,2013-05-10 12:15:00,
2013-05-10 08:25:00,63.8,61.7,30.03,West,259,0.0,0.0,93,0.00,,,0.00,Wunderground v.1.15,2013-05-10 12:25:00,
2013-05-10 08:30:00,64.1,61.7,30.03,West,259,0.0,0.0,92,0.00,,,0.00,Wunderground v.1.15,2013-05-10 12:30:00,
2013-05-10 08:35:00,64.6,62.5,30.03,West,259,0.0,0.0,93,0.00,,,0.00,Wunderground v.1.15,2013-05-10 12:35:00,
2013-05-10 08:40:00,65.0,62.6,30.03,West,259,0.0,0.0,92,0.00,,,0.00,Wunderground v.1.15,2013-05-10 12:40:00,
2013-05-10 08:45:00,65.4,63.0,30.02,West,259,0.0,0.0,92,0.00,,,0.00,Wunderground v.1.15,2013-05-10 12:45:00,
2013-05-10 08:50:00,65.7,63.0,30.03,West,259,0.0,0.0,91,0.00,,,0.00,Wunderground v.1.15,2013-05-10 12:50:00,
2013-05-10 08:55:00,65.9,63.2,30.02,West,259,0.0,0.0,91,0.00,,,0.00,Wunderground v.1.15,2013-05-10 12:55:00,
2013-05-10 09:00:00,66.2,63.2,30.03,West,259,0.0,0.0,90,0.00,,,0.00,Wunderground v.1.15,2013-05-10 13:00:00,
2013-05-10 09:05:00,66.5,63.5,30.02,West,259,0.0,0.0,90,0.00,,,0.00,Wunderground v.1.15,2013-05-10 13:05:00,
2013-05-10 09:10:00,66.8,63.8,30.03,West,259,0.0,0.0,90,0.00,,,0.00,Wunderground v.1.15,2013-05-10 13:10:00,
2013-05-10 09:15:00,67.2,63.8,30.03,West,259,0.0,0.0,89,0.00,,,0.00,Wunderground v.1.15,2013-05-10 13:15:00,
2013-05-10 09:20:00,67.5,64.1,30.03,West,259,0.0,0.0,89,0.00,,,0.00,Wunderground v.1.15,2013-05-10 13:20:00,
2013-05-10 09:25:00,67.9,64.2,30.03,West,259,0.0,3.0,88,0.00,,,0.00,Wunderground v.1.15,2013-05-10 13:25:00,
2013-05-10 09:30:00,67.4,62.7,30.03,WNW,284,1.0,2.0,85,0.00,,,0.00,Wunderground v.1.15,2013-05-10 13:30:00,
2013-05-10 11:56:00,77.5,66.5,30.03,WSW,238,1.0,1.0,69,0.00,,,0.00,Wunderground v.1.15,2013-05-10 15:56:00,
2013-05-10 15:45:00,82.6,62.6,29.97,SW,236,3.0,6.0,51,0.00,,,0.00,Wunderground v.1.15,2013-05-10 19:45:00,
2013-05-10 15:55:00,82.1,63.8,29.96,West,259,5.0,5.0,54,0.00,,,0.00,Wunderground v.1.15,2013-05-10 19:55:00,
2013-05-10 16:15:00,81.1,61.3,29.95,WSW,246,6.0,6.0,51,0.00,,,0.00,Wunderground v.1.15,2013-05-10 20:15:00,
2013-05-10 16:30:00,81.4,64.2,29.95,West,270,3.0,-999.0,56,0.00,,,0.00,Wunderground v.1.15,2013-05-10 20:30:00,
2013-05-10 16:35:00,81.4,64.2,29.95,West,270,3.0,-999.0,56,0.00,,,0.00,Wunderground v.1.15,2013-05-10 20:35:00,
2013-05-10 16:40:00,81.4,64.2,29.95,West,270,3.0,-999.0,56,0.00,,,0.00,Wunderground v.1.15,2013-05-10 20:40:00,
2013-05-10 16:45:00,81.3,63.1,29.94,West,270,1.0,-999.0,54,0.00,,,0.00,Wunderground v.1.15,2013-05-10 20:45:00,
2013-05-10 16:50:00,81.3,63.1,29.94,West,270,1.0,-999.0,54,0.00,,,0.00,Wunderground v.1.15,2013-05-10 20:50:00,
2013-05-10 16:55:00,81.3,63.1,29.94,West,270,1.0,-999.0,54,0.00,,,0.00,Wunderground v.1.15,2013-05-10 20:55:00,
2013-05-10 17:00:00,81.3,63.1,29.94,West,270,1.0,-999.0,54,0.00,,,0.00,Wunderground v.1.15,2013-05-10 21:00:00,
2013-05-10 17:05:00,81.3,63.1,29.94,West,270,1.0,-999.0,54,0.00,,,0.00,Wunderground v.1.15,2013-05-10 21:05:00,
2013-05-10 17:10:00,81.3,63.1,29.94,West,270,1.0,-999.0,54,0.00,,,0.00,Wunderground v.1.15,2013-05-10 21:10:00,
2013-05-10 17:15:00,81.1,63.9,29.94,West,270,2.0,-999.0,56,0.00,,,0.00,Wunderground v.1.15,2013-05-10 21:15:00,
2013-05-10 17:20:00,81.1,63.9,29.94,West,270,2.0,-999.0,56,0.00,,,0.00,Wunderground v.1.15,2013-05-10 21:20:00,
2013-05-10 17:25:00,81.1,63.9,29.94,West,270,2.0,-999.0,56,0.00,,,0.00,Wunderground v.1.15,2013-05-10 21:25:00,
2013-05-10 17:30:00,81.1,63.9,29.94,West,270,2.0,-999.0,56,0.00,,,0.00,Wunderground v.1.15,2013-05-10 21:30:00,
2013-05-10 17:35:00,81.1,63.9,29.94,West,270,2.0,-999.0,56,0.00,,,0.00,Wunderground v.1.15,2013-05-10 21:35:00,
2013-05-10 17:40:00,81.1,63.9,29.94,West,270,2.0,-999.0,56,0.00,,,0.00,Wunderground v.1.15,2013-05-10 21:40:00,
2013-05-10 17:45:00,79.9,62.8,29.94,West,270,2.0,-999.0,56,0.00,,,0.00,Wunderground v.1.15,2013-05-10 21:45:00,
2013-05-10 17:50:00,79.9,62.8,29.94,West,270,2.0,-999.0,56,0.00,,,0.00,Wunderground v.1.15,2013-05-10 21:50:00,
2013-05-10 17:55:00,79.9,62.8,29.94,West,270,2.0,-999.0,56,0.00,,,0.00,Wunderground v.1.15,2013-05-10 21:55:00,
2013-05-10 18:00:00,79.9,62.8,29.94,West,270,2.0,-999.0,56,0.00,,,0.00,Wunderground v.1.15,2013-05-10 22:00:00,
2013-05-10 18:05:00,79.9,62.8,29.94,West,270,2.0,-999.0,56,0.00,,,0.00,Wunderground v.1.15,2013-05-10 22:05:00,
2013-05-10 18:10:00,79.9,62.8,29.94,West,270,2.0,-999.0,56,0.00,,,0.00,Wunderground v.1.15,2013-05-10 22:10:00,
2013-05-10 18:15:00,78.8,61.8,29.93,West,270,1.0,-999.0,56,0.00,,,0.00,Wunderground v.1.15,2013-05-10 22:15:00,
2013-05-10 18:20:00,78.8,61.8,29.93,West,270,1.0,-999.0,56,0.00,,,0.00,Wunderground v.1.15,2013-05-10 22:20:00,
2013-05-10 18:25:00,78.8,61.8,29.93,West,270,1.0,-999.0,56,0.00,,,0.00,Wunderground v.1.15,2013-05-10 22:25:00,
2013-05-10 18:30:00,78.8,61.8,29.93,West,270,1.0,-999.0,56,0.00,,,0.00,Wunderground v.1.15,2013-05-10 22:30:00,
2013-05-10 18:35:00,78.8,61.8,29.93,West,270,1.0,-999.0,56,0.00,,,0.00,Wunderground v.1.15,2013-05-10 22:35:00,
2013-05-10 18:40:00,78.8,61.8,29.93,West,270,1.0,-999.0,56,0.00,,,0.00,Wunderground v.1.15,2013-05-10 22:40:00,
2013-05-10 18:45:00,77.9,62.4,29.93,West,270,1.0,-999.0,59,0.00,,,0.00,Wunderground v.1.15,2013-05-10 22:45:00,
2013-05-10 18:50:00,77.9,62.4,29.93,West,270,1.0,-999.0,59,0.00,,,0.00,Wunderground v.1.15,2013-05-10 22:50:00,
2013-05-10 18:55:00,77.9,62.4,29.93,West,270,1.0,-999.0,59,0.00,,,0.00,Wunderground v.1.15,2013-05-10 22:55:00,
2013-05-10 19:00:00,77.9,62.4,29.93,West,270,1.0,-999.0,59,0.00,,,0.00,Wunderground v.1.15,2013-05-10 23:00:00,
2013-05-10 19:05:00,77.9,62.4,29.93,West,270,1.0,-999.0,59,0.00,,,0.00,Wunderground v.1.15,2013-05-10 23:05:00,
2013-05-10 19:10:00,77.9,62.4,29.93,West,270,1.0,-999.0,59,0.00,,,0.00,Wunderground v.1.15,2013-05-10 23:10:00,
2013-05-10 19:15:00,77.0,62.5,29.93,West,270,1.0,-999.0,61,0.00,,,0.00,Wunderground v.1.15,2013-05-10 23:15:00,
2013-05-10 19:20:00,77.0,62.5,29.93,West,270,1.0,-999.0,61,0.00,,,0.00,Wunderground v.1.15,2013-05-10 23:20:00,
2013-05-10 19:25:00,77.0,62.5,29.93,West,270,1.0,-999.0,61,0.00,,,0.00,Wunderground v.1.15,2013-05-10 23:25:00,
2013-05-10 19:30:00,77.0,62.5,29.93,West,270,1.0,-999.0,61,0.00,,,0.00,Wunderground v.1.15,2013-05-10 23:30:00,
2013-05-10 19:35:00,77.0,62.5,29.93,West,270,1.0,-999.0,61,0.00,,,0.00,Wunderground v.1.15,2013-05-10 23:35:00,
2013-05-10 19:40:00,77.0,62.5,29.93,West,270,1.0,-999.0,61,0.00,,,0.00,Wunderground v.1.15,2013-05-10 23:40:00,
2013-05-10 19:45:00,76.1,63.0,29.93,WNW,293,0.0,-999.0,64,0.00,,,0.00,Wunderground v.1.15,2013-05-10 23:45:00,
2013-05-10 19:50:00,76.1,63.0,29.93,WNW,293,0.0,-999.0,64,0.00,,,0.00,Wunderground v.1.15,2013-05-10 23:50:00,
2013-05-10 19:55:00,76.1,63.0,29.93,WNW,293,0.0,-999.0,64,0.00,,,0.00,Wunderground v.1.15,2013-05-10 23:55:00,
2013-05-10 20:00:00,76.1,63.0,29.93,WNW,293,0.0,-999.0,64,0.00,,,0.00,Wunderground v.1.15,2013-05-11 00:00:00,
2013-05-10 20:05:00,76.1,63.0,29.93,WNW,293,0.0,-999.0,64,0.00,,,0.00,Wunderground v.1.15,2013-05-11 00:05:00,
2013-05-10 20:10:00,76.1,63.0,29.93,WNW,293,0.0,-999.0,64,0.00,,,0.00,Wunderground v.1.15,2013-05-11 00:10:00,
2013-05-10 20:15:00,74.8,63.1,29.94,WSW,248,2.0,-999.0,67,0.00,,,0.00,Wunderground v.1.15,2013-05-11 00:15:00,
2013-05-10 20:20:00,74.8,63.1,29.94,WSW,248,2.0,-999.0,67,0.00,,,0.00,Wunderground v.1.15,2013-05-11 00:20:00,
2013-05-10 20:25:00,74.8,63.1,29.94,WSW,248,2.0,-999.0,67,0.00,,,0.00,Wunderground v.1.15,2013-05-11 00:25:00,
2013-05-10 20:30:00,74.8,63.1,29.94,WSW,248,2.0,-999.0,67,0.00,,,0.00,Wunderground v.1.15,2013-05-11 00:30:00,
2013-05-10 20:35:00,74.8,63.1,29.94,WSW,248,2.0,-999.0,67,0.00,,,0.00,Wunderground v.1.15,2013-05-11 00:35:00,
2013-05-10 20:40:00,74.8,63.1,29.94,WSW,248,2.0,-999.0,67,0.00,,,0.00,Wunderground v.1.15,2013-05-11 00:40:00,
2013-05-10 20:45:00,74.4,63.6,29.94,WSW,248,1.0,-999.0,69,0.00,,,0.00,Wunderground v.1.15,2013-05-11 00:45:00,
2013-05-10 20:50:00,74.4,63.6,29.94,WSW,248,1.0,-999.0,69,0.00,,,0.00,Wunderground v.1.15,2013-05-11 00:50:00,
2013-05-10 20:55:00,74.4,63.6,29.94,WSW,248,1.0,-999.0,69,0.00,,,0.00,Wunderground v.1.15,2013-05-11 00:55:00,
2013-05-10 21:00:00,74.4,63.6,29.94,WSW,248,1.0,-999.0,69,0.00,,,0.00,Wunderground v.1.15,2013-05-11 01:00:00,
2013-05-10 21:05:00,74.4,63.6,29.94,WSW,248,1.0,-999.0,69,0.00,,,0.00,Wunderground v.1.15,2013-05-11 01:05:00,
2013-05-10 21:10:00,74.4,63.6,29.94,WSW,248,1.0,-999.0,69,0.00,,,0.00,Wunderground v.1.15,2013-05-11 01:10:00,
2013-05-10 21:15:00,73.5,63.1,29.95,WSW,248,0.0,-999.0,70,0.00,,,0.00,Wunderground v.1.15,2013-05-11 01:15:00,
2013-05-10 21:20:00,73.5,63.1,29.95,WSW,248,0.0,-999.0,70,0.00,,,0.00,Wunderground v.1.15,2013-05-11 01:20:00,
2013-05-10 21:25:00,73.5,63.1,29.95,WSW,248,0.0,-999.0,70,0.00,,,0.00,Wunderground v.1.15,2013-05-11 01:25:00,
2013-05-10 21:30:00,73.5,63.1,29.95,WSW,248,0.0,-999.0,70,0.00,,,0.00,Wunderground v.1.15,2013-05-11 01:30:00,
2013-05-10 21:35:00,73.5,63.1,29.95,WSW,248,0.0,-999.0,70,0.00,,,0.00,Wunderground v.1.15,2013-05-11 01:35:00,
2013-05-10 21:40:00,73.5,63.1,29.95,WSW,248,0.0,-999.0,70,0.00,,,0.00,Wunderground v.1.15,2013-05-11 01:40:00,
2013-05-10 21:45:00,72.8,62.8,29.94,WSW,248,0.0,-999.0,71,0.00,,,0.00,Wunderground v.1.15,2013-05-11 01:45:00,
2013-05-10 21:50:00,72.8,62.8,29.94,WSW,248,0.0,-999.0,71,0.00,,,0.00,Wunderground v.1.15,2013-05-11 01:50:00,
2013-05-10 21:55:00,72.8,62.8,29.94,WSW,248,0.0,-999.0,71,0.00,,,0.00,Wunderground v.1.15,2013-05-11 01:55:00,
2013-05-10 22:00:00,72.8,62.8,29.94,WSW,248,0.0,-999.0,71,0.00,,,0.00,Wunderground v.1.15,2013-05-11 02:00:00,
2013-05-10 22:05:00,72.8,62.8,29.94,WSW,248,0.0,-999.0,71,0.00,,,0.00,Wunderground v.1.15,2013-05-11 02:05:00,
2013-05-10 22:10:00,72.8,62.8,29.94,WSW,248,0.0,-999.0,71,0.00,,,0.00,Wunderground v.1.15,2013-05-11 02:10:00,
2013-05-10 22:15:00,72.1,63.4,29.95,WSW,248,0.0,-999.0,74,0.00,,,0.00,Wunderground v.1.15,2013-05-11 02:15:00,
2013-05-10 22:20:00,72.1,63.4,29.95,WSW,248,0.0,-999.0,74,0.00,,,0.00,Wunderground v.1.15,2013-05-11 02:20:00,
2013-05-10 22:25:00,72.1,63.4,29.95,WSW,248,0.0,-999.0,74,0.00,,,0.00,Wunderground v.1.15,2013-05-11 02:25:00,
2013-05-10 22:30:00,72.1,63.4,29.95,WSW,248,0.0,-999.0,74,0.00,,,0.00,Wunderground v.1.15,2013-05-11 02:30:00,
2013-05-10 22:35:00,72.1,63.4,29.95,WSW,248,0.0,-999.0,74,0.00,,,0.00,Wunderground v.1.15,2013-05-11 02:35:00,
2013-05-10 22:40:00,72.1,63.4,29.95,WSW,248,0.0,-999.0,74,0.00,,,0.00,Wunderground v.1.15,2013-05-11 02:40:00,
2013-05-10 22:45:00,71.9,63.2,29.94,WSW,248,1.0,-999.0,74,0.00,,,0.00,Wunderground v.1.15,2013-05-11 02:45:00,
2013-05-10 22:50:00,71.9,63.2,29.94,WSW,248,1.0,-999.0,74,0.00,,,0.00,Wunderground v.1.15,2013-05-11 02:50:00,
2013-05-10 22:55:00,71.9,63.2,29.94,WSW,248,1.0,-999.0,74,0.00,,,0.00,Wunderground v.1.15,2013-05-11 02:55:00,
2013-05-10 23:00:00,71.9,63.2,29.94,WSW,248,1.0,-999.0,74,0.00,,,0.00,Wunderground v.1.15,2013-05-11 03:00:00,
2013-05-10 23:05:00,71.9,63.2,29.94,WSW,248,1.0,-999.0,74,0.00,,,0.00,Wunderground v.1.15,2013-05-11 03:05:00,
2013-05-10 23:10:00,71.9,63.2,29.94,WSW,248,1.0,-999.0,74,0.00,,,0.00,Wunderground v.1.15,2013-05-11 03:10:00,
2013-05-10 23:15:00,71.7,63.4,29.94,West,270,0.0,-999.0,75,0.00,,,0.00,Wunderground v.1.15,2013-05-11 03:15:00,
2013-05-10 23:20:00,71.7,63.4,29.94,West,270,0.0,-999.0,75,0.00,,,0.00,Wunderground v.1.15,2013-05-11 03:20:00,
2013-05-10 23:25:00,71.7,63.4,29.94,West,270,0.0,-999.0,75,0.00,,,0.00,Wunderground v.1.15,2013-05-11 03:25:00,
2013-05-10 23:30:00,71.7,63.4,29.94,West,270,0.0,-999.0,75,0.00,,,0.00,Wunderground v.1.15,2013-05-11 03:30:00,
2013-05-10 23:35:00,71.7,63.4,29.94,West,270,0.0,-999.0,75,0.00,,,0.00,Wunderground v.1.15,2013-05-11 03:35:00,
2013-05-10 23:40:00,71.7,63.4,29.94,West,270,0.0,-999.0,75,0.00,,,0.00,Wunderground v.1.15,2013-05-11 03:40:00,
2013-05-10 23:45:00,71.4,63.4,29.94,West,270,0.0,-999.0,76,0.00,,,0.00,Wunderground v.1.15,2013-05-11 03:45:00,
2013-05-10 23:50:00,71.4,63.4,29.94,West,270,0.0,-999.0,76,0.00,,,0.00,Wunderground v.1.15,2013-05-11 03:50:00,
2013-05-10 23:55:00,71.4,63.4,29.94,West,270,0.0,-999.0,76,0.00,,,0.00,Wunderground v.1.15,2013-05-11 03:55:00,